Overview Statistics Trail Chart Weather Telemetry Raw packets
 

This is the latest recevied weather packets stored in our database for station/object HOWARD. If no packets are shown the sender has not sent any weather packets the latest 10 day(s).

<< 26 27 28 29 30 31 32 >>
Time Temp. Humidity Pressure Rain* Wind** Luminosity Snow
1788273883 13.89° C 45% 1011.2 hPa 0 mm - - -
1788273283 14.44° C 44% 1011.2 hPa 0 mm - - -
1788272683 13.89° C 46% 1011.2 hPa 0 mm - - -
1788272083 13.89° C 46% 1011.2 hPa 0 mm - - -
1788271483 15° C 46% 1011.3 hPa 0 mm - - -
1788270883 13.89° C 46% 1011.3 hPa 0 mm - - -
1788270283 13.89° C 46% 1011.5 hPa 0 mm - - -
1788269849 13.89° C 45% 1011.6 hPa 0 mm - - -
1788269682 13.89° C 45% 1011.6 hPa 0 mm - - -
1788269083 13.89° C 45% 1011.8 hPa 0 mm - - -
1788268483 13.89° C 45% 1011.9 hPa 0 mm - - -
1788267883 13.33° C 43% 1012 hPa 0 mm - - -
1788267283 13.89° C 41% 1012.1 hPa 0 mm - - -
1788266682 13.89° C 37% 1012.2 hPa 0 mm - - -
1788266082 14.44° C 35% 1012.4 hPa 0 mm - - -
1788265483 15° C 38% 1011.8 hPa 0 mm - - -
1788264940 15° C 38% 1011.9 hPa 0 mm - - -
1788264882 15° C 38% 1011.9 hPa 0 mm - - -
1788264360 15° C 37% 1012.1 hPa 0 mm - - -
1788264282 15° C 37% 1012.1 hPa 0 mm - - -
1788263682 15° C 33% 1012.3 hPa 0 mm - - -
1788263082 15° C 34% 1012.5 hPa 0 mm - - -
1788262482 15.56° C 33% 1012.6 hPa 0 mm - - -
1788261882 15° C 28% 1012.8 hPa 0 mm - - -
1788261282 15° C 25% 1012.9 hPa 0 mm - - -

* Rain latest hour (hover to see other rain measurements)
** Current wind speed in m/s (hover to see current wind gust speed)